Flag for Germany Weather past 2 weeks in Willich, North Rhine-Westphalia, Germany

Now
54 °F

Sunny.


Feels Like: 53 °F
Forecast: 51 / 65 °F
Wind: 3 mph from North

Location: Monchengladbach Airport

Current Time: Sep 2, 2015 at 9:06:14 AM

Latest Report: Sep 2, 2015 at 8:20 AM


Visibility: 10 mi

Pressure: 30.04 "Hg

Humidity: 100%

Dew point: 54 °F

Location of WillichLocation

Historic Weather in Willich — Graph

°F

Willich temperature yesterday

Maximum temperature yesterday: 64 °F (at 3:50 PM)
Minimum temperature yesterday: 61 °F (at 8:20 AM)
Average temperature yesterday: 62 °F

Past Weeks' High & Low Weather Summary

 TemperatureHumidityPressure
High90 °F (Aug 30, 3:20 PM)100% (Aug 18, 7:50 AM)30.24 "Hg (Aug 18, 7:50 AM)
Low50 °F (Sep 2, 7:20 AM)33% (Aug 31, 4:50 PM)29.50 "Hg (Aug 24, 4:20 PM)
Average70 °F68%29.96 "Hg
* Reported Aug 18 7:50 AM — Sep 2 7:50 AM, Willich, Weather by CustomWeather, © 2015

Note: Actual official high and low records may vary slightly from our data, if they occured in-between our weather recording intervals... More about our weather records

Advertising

Willich weather history for previous 24 hours

 ConditionsComfort  
Time TempWeatherWind HumidityBarometerVisibility
7:50 AM
Wed, Sep 2
54 °FSunny.1 mph100%30.04 "Hg10 mi
7:20 AM50 °FSunny.No wind100%30.04 "Hg10 mi
7:50 PM
Tue, Sep 1
63 °FPassing clouds.3 mph83%29.98 "HgN/A
7:20 PM63 °FPassing clouds.6 mph83%29.98 "HgN/A
6:50 PM64 °FPassing clouds.5 mph73%29.98 "HgN/A
6:20 PM64 °FRain showers. Passing clouds.5 mph78%29.98 "Hg4 mi
5:50 PM64 °FClear.7 mph78%29.98 "Hg10 mi
5:20 PM64 °FPassing clouds.7 mph83%29.95 "HgN/A
4:50 PM63 °FScattered showers. Passing clouds.10 mph77%29.95 "HgN/A
4:20 PM64 °FPassing clouds.10 mph78%29.95 "HgN/A
3:50 PM64 °FPassing clouds.12 mph78%29.95 "HgN/A
3:20 PM63 °FPartly cloudy.12 mph88%29.95 "HgN/A
2:50 PM63 °FPartly cloudy.14 mph88%29.92 "Hg5 mi
2:20 PM61 °FPartly cloudy.10 mph100%29.92 "Hg5 mi
1:50 PM61 °FLight rain. Partly cloudy.10 mph100%29.92 "Hg5 mi
1:20 PM61 °FLight rain. Passing clouds.10 mph100%29.89 "Hg5 mi
12:50 PM61 °FLight rain. Partly cloudy.8 mph100%29.89 "Hg5 mi
12:20 PM61 °FLight rain. Broken clouds.10 mph100%29.89 "Hg5 mi
11:50 AM61 °FLight rain. Broken clouds.9 mph100%29.86 "Hg4 mi
11:20 AM61 °FLight rain. Broken clouds.8 mph100%29.86 "Hg4 mi
10:50 AM61 °FRain. Broken clouds.8 mph100%29.86 "Hg4 mi
10:20 AM61 °FRain. Partly sunny.9 mph100%29.86 "Hg4 mi
9:50 AM61 °FRain. Partly sunny.10 mph100%29.83 "Hg4 mi
9:20 AM61 °FRain. Partly sunny.12 mph100%29.83 "Hg4 mi
Weather by CustomWeather, © 2015

See weather overviewHow to use our weather pages